Home > Weather > Stamford > Past weeks

Flag for USA Weather for the Past 2 Weeks in Stamford, Connecticut, USA

Now
62 °F

Scattered clouds.


Feels Like: 62 °F
Forecast: 42 / 61 °F
Wind: 8 mph from East

Location: Westchester County Airport

Current Time: Apr 30, 2016 at 3:25:53 PM

Latest Report: Apr 30, 2016 at 2:56 PM


Visibility: 10 mi

Pressure: 30.19 "Hg

Humidity: 35%

Dew Point: 34 °F

Location of StamfordLocation

Historic Weather in Stamford — Graph

°F

Stamford Temperature Yesterday

Maximum temperature yesterday: 54 °F (at 12:56 PM)
Minimum temperature yesterday: 44 °F (at 11:56 PM)
Average temperature yesterday: 49 °F

High & Low Weather Summary for the Past Weeks

 TemperatureHumidityPressure
High76 °F (Apr 18, 2:56 PM)97% (Apr 26, 11:56 AM)30.47 "Hg (Apr 26, 11:56 AM)
Low37 °F (Apr 16, 5:56 AM)12% (Apr 20, 5:56 PM)29.67 "Hg (Apr 26, 2:56 PM)
Average55 °F52%30.06 "Hg
* Reported Apr 15 1:56 PM — Apr 30 1:56 PM, Stamford, Weather by CustomWeather, © 2016

Note: Actual official high and low records may vary slightly from our data, if they occured in-between our weather recording intervals... More about our weather records

Advertising

Stamford Weather History for the Previous 24 Hours

Scroll right to see more
 ConditionsComfort  
Time TempWeatherWind HumidityBarometerVisibility
1:56 PM
Sat, Apr 30
60 °FScattered clouds.8 mph39%30.19 "Hg10 mi
12:56 PM59 °FScattered clouds.9 mph36%30.19 "Hg10 mi
11:56 AM60 °FScattered clouds.8 mph46%30.18 "Hg10 mi
10:56 AM56 °FPassing clouds.3 mph53%30.19 "Hg10 mi
9:56 AM52 °FScattered clouds.No wind66%30.22 "Hg10 mi
8:56 AM48 °FPartly sunny.6 mph77%30.22 "Hg10 mi
7:56 AM46 °FPartly sunny.No wind83%30.22 "Hg10 mi
6:56 AM44 °FPartly sunny.No wind89%30.21 "Hg10 mi
5:56 AM44 °FPassing clouds.6 mph85%30.18 "Hg10 mi
4:56 AM44 °FPassing clouds.No wind89%30.17 "Hg10 mi
3:56 AM44 °FOvercast.5 mph85%30.15 "Hg10 mi
2:56 AM44 °FPassing clouds.3 mph85%30.14 "Hg10 mi
1:56 AM44 °FPassing clouds.5 mph85%30.17 "Hg10 mi
12:56 AM45 °FPassing clouds.3 mph82%30.16 "Hg10 mi
11:56 PM
Fri, Apr 29
44 °FMostly cloudy.No wind89%30.14 "Hg10 mi
10:56 PM45 °FLight rain. Passing clouds.6 mph86%30.15 "Hg10 mi
9:56 PM46 °FLight rain. Overcast.6 mph79%30.16 "Hg10 mi
8:56 PM47 °FRain. Passing clouds.3 mph71%30.12 "Hg6 mi
7:56 PM49 °FMostly cloudy.6 mph59%30.09 "Hg10 mi
6:56 PM50 °FPartly sunny.7 mph50%30.09 "Hg10 mi
5:56 PM51 °FPartly sunny.8 mph50%30.08 "Hg10 mi
4:56 PM52 °FPartly sunny.9 mph49%30.08 "Hg10 mi
3:56 PM53 °FPartly sunny.10 mph48%30.08 "Hg10 mi
Weather by CustomWeather, © 2016

See weather overviewHow to use our weather pages